Погода в Александрийском

Украина / Кировоградская область     48°36′13″N   32°59′18″E
темп.,
°C
ветер,
м/с
пор.,
м/с
влажн.,
%
обл.,
%
осадки,
мм/ч
давл.,
гПа
погр.,
м
18 мая, вт
вт1800:00+14ююз339012 0.0 100547
03:00+13ю3694100 0.0 1004118
06:00+13ю479390 0.3 1005230
09:00+17ю577433 0.6 1005651
12:00+21ююв78579 0.1 10031494
15:00+17ю8117297 1.9 10031135
18:00+17ю71177100 0.9 1002954
21:00+13ю4108765 1.3 1002262
19 мая, ср
ср1900:00+11ю4109328 0.0 1002238
03:00+10ююв48978 0.0 1002191
06:00+10ююв37965 0.0 1003210
09:00+15ююв56738 0.0 1003806
12:00+17ю456187 1.0 10031355
15:00+13ю2486100 2.8 1004369
18:00+16юз2372100 0.1 1004760
21:00+12зюз599269 0.3 1005224
20 мая, чт
чт2000:00+12з71190100 0.8 1006586
03:00+12з61092100 0.8 1007528
06:00+11зюз599380 0.0 1008429
09:00+15з697161 0.0 1009983
12:00+19зюз795257 0.0 10101861
15:00+17юз566391 0.1 1010641
18:00+14зюз3486100 0.5 1011137
21:00+13зсз3588100 0.8 1012136
21 мая, пт
пт2100:00+12ссв3695100 0.8 1013224
03:00+11всв61194100 1.1 1013380
06:00+11св71391100 0.1 1013422
09:00+13всв61380100 0.1 1013529
12:00+15всв71070100 0.0 1013834
15:00+19всв6764100 0.0 10121415
18:00+18св4672100 0.0 1012313
21:00+15с61082100 0.0 1013265
22 мая, сб
сб2200:00+13с611857 0.0 1012330
03:00+13с61190100 0.0 1012313
06:00+13с3890100 0.1 1012267
09:00+16с798227 1.1 1012453
12:00+21ссв676926 0.0 1012852
15:00+23с676318 0.0 10121214
18:00+22с67690 0.0 1012820
21:00+17ссз510890 0.0 1012259